Location: Unspecified
(0.0000°N, 0.0000°E)
Time: 15:43:04
(UTC+00:00)

Vanguard 2 Rocket - Visible Passes

Search period start: 21 November 2017 00:00
Search period end: 01 December 2017 00:00
Orbit: 556 x 3326 km, 32.9° (Epoch: 20 November)

Date Brightness Start Highest point End Pass type
(mag) Time Alt. Az. Time Alt. Az. Time Alt. Az.
21 Nov 10.4 17:50:59 10° S 17:58:54 17° SSE 18:08:51 10° ESE visible
21 Nov 9.8 20:02:32 10° SW 20:18:00 48° SE 20:23:38 41° ESE visible
21 Nov 9.9 22:17:40 10° WSW 22:29:25 50° WSW 22:29:25 50° WSW visible
22 Nov 10.0 19:03:12 10° SSW 19:16:05 35° SE 19:27:18 21° E visible
22 Nov 9.4 21:16:46 10° SW 21:33:06 78° S 21:33:06 78° S visible
22 Nov 10.7 23:35:09 10° WSW 23:38:54 19° W 23:38:54 19° W visible
23 Nov 10.2 18:04:32 10° SSW 18:14:26 24° SSE 18:27:46 10° E visible
23 Nov 9.4 20:16:37 10° SW 20:32:36 64° SE 20:36:50 56° E visible
23 Nov 10.1 22:32:45 10° WSW 22:42:38 40° W 22:42:38 40° W visible
24 Nov 9.6 19:17:07 10° SW 19:30:48 48° SE 19:40:37 30° E visible
24 Nov 9.5 21:31:26 10° WSW 21:46:25 70° W 21:46:25 70° W visible
24 Nov 11.0 23:51:42 10° W 23:52:13 11° W 23:52:13 11° W visible
25 Nov 9.8 18:18:14 10° SSW 18:29:25 34° SE 18:44:26 12° E visible
25 Nov 9.3 20:30:59 10° SW 20:47:05 84° SE 20:50:14 71° ENE visible
25 Nov 10.4 22:48:30 10° W 22:56:03 29° W 22:56:03 29° W visible
26 Nov 9.3 19:31:14 10° SW 19:45:16 65° SE 19:54:06 40° ENE visible
26 Nov 9.7 21:46:35 10° WSW 21:59:55 54° WNW 21:59:55 54° WNW visible
27 Nov 9.8 05:04:04 10° N 05:07:38 12° N 05:10:39 10° NNE visible
27 Nov 9.5 18:32:07 10° SSW 18:43:57 47° SE 18:58:00 18° ENE visible
27 Nov 9.3 20:45:42 10° WSW 21:01:40 75° NW 21:03:49 71° N visible
27 Nov 10.7 23:05:03 10° W 23:09:38 19° WNW 23:09:38 19° WNW visible
28 Nov 10.1 04:02:03 10° NNW 04:06:10 12° N 04:09:43 10° NNE visible
28 Nov 9.2 19:45:38 10° SW 19:59:43 86° SE 20:07:45 47° ENE visible
28 Nov 10.0 22:02:22 10° W 22:13:35 39° WNW 22:13:35 39° WNW visible
29 Nov 10.3 03:05:24 13° N 03:05:24 13° N 03:09:03 10° NNE visible
29 Nov 9.4 05:16:29 10° NNW 05:23:41 19° NNE 05:28:50 10° ENE visible
29 Nov 9.2 18:46:14 10° SW 18:58:20 66° SE 19:11:44 23° ENE visible
29 Nov 9.5 21:00:55 10° WSW 21:16:31 57° NNW 21:17:33 57° NNW visible
29 Nov 10.9 23:22:30 10° WNW 23:23:22 11° WNW 23:23:22 11° WNW visible
30 Nov 9.8 04:15:05 10° NNW 04:22:35 17° NNE 04:28:16 10° NE visible
30 Nov 9.3 17:47:26 10° SSW 17:57:32 46° SE 18:13:54 10° ENE visible
30 Nov 9.3 20:00:25 10° WSW 20:14:22 72° NW 20:21:32 48° NNE visible
30 Nov 10.4 22:18:57 10° W 22:27:21 27° WNW 22:27:21 27° WNW visible
